Weather History for Akron, CO

Change the Weather History Date:

Tuesday, December 27, 2011

  Actual Average Record
Temperature  
Mean Temperature 33 °F 28 °F  
Max Temperature 46 °F 40 °F 73 °F (1980)
Min Temperature 20 °F 16 °F -10 °F (1941)
Degree Days  
Heating Degree Days 32    
Month to date heating degree days 1046  
Cooling Degree Days 0    
Month to date cooling degree days 0  
Moisture  
Dew Point 18 °F    
Average Humidity 57    
Maximum Humidity 74    
Minimum Humidity 39    
Precipitation  
Precipitation 0.00 in 0.01 in 0.33 in (1987)
Month to date precipitation 0.02 0.36  
Year to date precipitation 16.70  
Sea Level Pressure  
Sea Level Pressure 30.12 in    
Wind  
Wind Speed 11 mph (WSW)    
Max Wind Speed 23 mph    
Max Gust Speed 28 mph    
Visibility 10 miles    
Events      
T = Trace of Precipitation, MM = Missing Value Source: NWS Daily Summary

Daily Weather History Graph

Daily Weather History Graph

Search for Another Location

Airport:

Trip Planner

Search our weather history database for the weather conditions in past years. The results will help you decide how hot, cold, wet, or windy it might be!

Date:

Astronomy

Dec. 27, 2011 Rise Set
Actual Time 7:14 AM MST 4:33 PM MST
Civil Twilight 6:43 AM MST 5:04 PM MST
Nautical Twilight 6:09 AM MST 5:38 PM MST
Astronomical Twilight 5:36 AM MST 6:11 PM MST
Moon 9:10 AM MST (12/27) 8:09 PM MST (12/27)
Length of Visible Light 10h 20m
Length of Day
9h 19m
Waxing Crescent, 11% of the Moon is Illuminated
Dec 27
Waxing Crescent
Dec 31
First Quarter
Jan 9
Full
Jan 16
Last Quarter
Jan 23
New

Hourly Weather History & Observations

Time (MST) Temp. Windchill Dew Point Humidity Pressure Visibility Wind Dir Wind Speed Gust Speed Precip Events Conditions
1:53 AM 21.9 °F 11.7 °F 14.0 °F 72% 30.22 in 10.0 mi SW 9.2 mph - N/A   Clear
2:53 AM 24.1 °F 13.1 °F 14.0 °F 65% 30.22 in 10.0 mi WSW 11.5 mph - N/A   Clear
3:53 AM 23.0 °F 11.7 °F 14.0 °F 68% 30.22 in 10.0 mi SW 11.5 mph - N/A   Clear
5:53 AM 25.0 °F 17.1 °F 12.0 °F 58% 30.21 in 10.0 mi SSW 6.9 mph - N/A   Clear
6:53 AM 25.0 °F 17.1 °F 12.0 °F 58% 30.21 in 10.0 mi South 6.9 mph - N/A   Clear
7:53 AM 28.0 °F 19.3 °F 14.0 °F 56% 30.18 in 10.0 mi South 9.2 mph - N/A   Clear
8:53 AM 32.0 °F 23.6 °F 17.1 °F 54% 30.16 in 10.0 mi South 10.4 mph - N/A   Clear
9:53 AM 34.0 °F 24.6 °F 17.1 °F 50% 30.15 in 10.0 mi SW 13.8 mph - N/A   Clear
10:53 AM 36.0 °F 27.5 °F 19.0 °F 50% 30.12 in 10.0 mi WSW 12.7 mph - N/A   Mostly Cloudy
11:53 AM 41.0 °F 33.5 °F 19.9 °F 43% 30.07 in 10.0 mi SW 13.8 mph - N/A   Overcast
12:53 PM 44.1 °F 35.9 °F 21.0 °F 40% 30.01 in 10.0 mi SSW 19.6 mph - N/A   Mostly Cloudy
1:53 PM 45.0 °F 37.9 °F 21.0 °F 39% 29.99 in 10.0 mi SW 16.1 mph - N/A   Clear
3:53 PM 37.9 °F 32.7 °F 21.9 °F 53% 30.03 in 10.0 mi WSW 6.9 mph - N/A   Clear
4:53 PM 34.0 °F - 21.9 °F 61% 30.06 in 10.0 mi Calm Calm - N/A   Clear
5:53 PM 33.1 °F 24.9 °F 21.0 °F 61% 30.05 in 10.0 mi West 10.4 mph - N/A   Clear
7:53 PM 28.0 °F 18.1 °F 19.9 °F 72% 30.09 in 10.0 mi WNW 11.5 mph - N/A   Clear
8:53 PM 28.0 °F 18.6 °F 19.0 °F 69% 30.11 in 10.0 mi WNW 10.4 mph - N/A   Clear
9:53 PM 30.9 °F 21.7 °F 17.1 °F 57% 30.09 in 10.0 mi NNW 11.5 mph - N/A   Clear
10:53 PM 28.0 °F 17.0 °F 17.1 °F 63% 30.11 in 10.0 mi NNW 13.8 mph - N/A   Clear
11:53 PM 32.0 °F 22.1 °F 18.0 °F 56% 30.06 in 10.0 mi North 13.8 mph - N/A   Clear